Willimantic, CT

9:07 PM EST on November 17, 2017 (GMT -0500)
Windham

Weather History for KIJD - July, 2013

Change the Weather History Date:

Wednesday, July 3, 2013

  Actual Average Record
Temperature  
Mean Temperature 78 °F -  
Max Temperature 86 °F 80 °F 96 °F (1963)
Min Temperature 71 °F 57 °F 37 °F (1957)
Cooling Degree Days 12    
Growing Degree Days 28 (Base 50)    
Moisture  
Dew Point 71 °F    
Average Humidity 81    
Maximum Humidity 94    
Minimum Humidity 61    
Precipitation  
Precipitation 0.00 in - - ()
Sea Level Pressure  
Sea Level Pressure 30.21 in    
Wind  
Wind Speed 5 mph (SSW)    
Max Wind Speed 14 mph    
Max Gust Speed 22 mph    
Visibility 10 miles    
Events Rain    
Averages and records for this station are not official NWS values.
T = Trace of Precipitation, MM = Missing Value Source: NWS Daily Summary

Daily Weather History Graph

Daily Weather History Graph

Search for Another Location

Airport or City:

Trip Planner

Search our weather history database for the weather conditions in past years. The results will help you decide how hot, cold, wet, or windy it might be!

Date:

Astronomy

Jul. 03, 2013 Rise Set
Actual Time 5:19 AM EDT 8:26 PM EDT
Civil Twilight 4:45 AM EDT 9:00 PM EDT
Nautical Twilight 4:01 AM EDT 9:44 PM EDT
Astronomical Twilight 3:09 AM EDT 10:35 PM EDT
Moon 1:57 AM EDT (7/3) 4:33 PM EDT (7/3)
Length of Visible Light 16h 15m
Length of Day
15h 07m
Waning Crescent, 18% of the Moon is Illuminated
Jul 3
Waning Crescent
Jul 8
New
Jul 15
First Quarter
Jul 22
Full
Jul 29
Last Quarter

Hourly Weather History & Observations

Time (EDT) Temp. Heat Index Dew Point Humidity Pressure Visibility Wind Dir Wind Speed Gust Speed Precip Events Conditions
12:52 AM 73.0 °F - 71.1 °F 93% 30.18 in 8.0 mi Calm Calm - 0.00 in   Clear
1:52 AM 73.0 °F - 70.0 °F 90% 30.19 in 10.0 mi South 4.6 mph - N/A   Clear
2:52 AM 72.0 °F - 70.0 °F 93% 30.19 in 10.0 mi South 3.5 mph - N/A   Partly Cloudy
3:52 AM 72.0 °F - 69.1 °F 91% 30.18 in 10.0 mi SSE 3.5 mph - N/A   Mostly Cloudy
4:52 AM 71.1 °F - 69.1 °F 93% 30.19 in 10.0 mi South 6.9 mph - N/A   Partly Cloudy
5:43 AM 71.6 °F - 69.8 °F 94% 30.21 in 10.0 mi SSW 4.6 mph - N/A   Overcast
5:52 AM 71.1 °F - 69.1 °F 93% 30.21 in 10.0 mi Calm Calm - N/A   Overcast
6:34 AM 71.6 °F - 69.8 °F 94% 30.22 in 10.0 mi SSW 6.9 mph - N/A   Scattered Clouds
6:52 AM 72.0 °F - 69.1 °F 91% 30.22 in 10.0 mi SSW 6.9 mph - 0.00 in Rain Light Rain
7:52 AM 73.0 °F - 69.1 °F 87% 30.23 in 10.0 mi SW 5.8 mph - 0.00 in   Partly Cloudy
8:52 AM 75.0 °F - 70.0 °F 84% 30.24 in 10.0 mi SW 5.8 mph - N/A   Clear
9:52 AM 75.0 °F - 70.0 °F 84% 30.24 in 10.0 mi SW 3.5 mph - N/A   Clear
10:52 AM 81.0 °F 84.9 °F 71.1 °F 72% 30.23 in 10.0 mi SSW 10.4 mph - N/A   Clear
11:52 AM 84.0 °F 89.0 °F 71.1 °F 65% 30.22 in 10.0 mi SSW 12.7 mph 16.1 mph N/A   Partly Cloudy
12:52 PM 84.0 °F 89.0 °F 71.1 °F 65% 30.22 in 10.0 mi SW 10.4 mph - N/A   Mostly Cloudy
1:52 PM 84.9 °F 89.4 °F 70.0 °F 61% 30.21 in 10.0 mi SW 11.5 mph 21.9 mph N/A   Scattered Clouds
2:52 PM 84.9 °F 89.4 °F 70.0 °F 61% 30.20 in 10.0 mi SW 13.8 mph 21.9 mph N/A   Partly Cloudy
3:52 PM 84.0 °F 88.4 °F 70.0 °F 63% 30.19 in 10.0 mi SW 11.5 mph - N/A   Partly Cloudy
4:22 PM 84.2 °F 88.4 °F 69.8 °F 62% 30.18 in 10.0 mi SW 12.7 mph - N/A   Partly Cloudy
4:52 PM 84.0 °F 89.0 °F 71.1 °F 65% 30.18 in 10.0 mi SSW 12.7 mph - N/A   Scattered Clouds
5:52 PM 82.0 °F 86.7 °F 72.0 °F 71% 30.18 in 10.0 mi SSW 9.2 mph - N/A   Scattered Clouds
6:52 PM 82.0 °F 86.7 °F 72.0 °F 71% 30.18 in 10.0 mi SSW 11.5 mph 19.6 mph N/A   Clear
7:52 PM 79.0 °F - 72.0 °F 79% 30.19 in 10.0 mi SSW 8.1 mph - N/A   Partly Cloudy
8:52 PM 77.0 °F - 71.1 °F 82% 30.21 in 10.0 mi SSW 8.1 mph - N/A   Partly Cloudy
9:52 PM 75.9 °F - 71.1 °F 85% 30.22 in 10.0 mi SSW 3.5 mph - N/A   Mostly Cloudy
10:16 PM 75.2 °F - 71.6 °F 89% 30.23 in 10.0 mi Calm Calm - N/A   Mostly Cloudy
10:25 PM 75.2 °F - 71.6 °F 89% 30.23 in 10.0 mi SSW 4.6 mph - N/A   Scattered Clouds
10:42 PM 75.2 °F - 71.6 °F 89% 30.23 in 10.0 mi SSW 4.6 mph - N/A   Mostly Cloudy
10:52 PM 75.0 °F - 71.1 °F 87% 30.22 in 10.0 mi SSW 4.6 mph - N/A   Mostly Cloudy
11:30 PM 75.2 °F - 71.6 °F 89% 30.22 in 10.0 mi Calm Calm - N/A   Scattered Clouds
11:52 PM 73.9 °F - 71.1 °F 91% 30.22 in 10.0 mi SSW 3.5 mph - N/A   Partly Cloudy